Othello, WA

7:48 PM PDT on September 30, 2016 (GMT -0700)
Hanford

Weather History for KHMS - January, 2013

Change the Weather History Date:

Tuesday, January 15, 2013

  Actual Average Record
Temperature  
Mean Temperature 26 °F -  
Max Temperature 33 °F 37 °F 51 °F (1999)
Min Temperature 15 °F 26 °F 5 °F (2007)
Degree Days  
Heating Degree Days 40    
Moisture  
Dew Point 20 °F    
Average Humidity 87    
Maximum Humidity 96    
Minimum Humidity 69    
Precipitation  
Precipitation 0.00 in - - ()
Sea Level Pressure  
Sea Level Pressure 30.61 in    
Wind  
Wind Speed 4 mph (West)    
Max Wind Speed 7 mph    
Max Gust Speed -    
Visibility 9 miles    
Events      
Averages and records for this station are not official NWS values.
T = Trace of Precipitation, MM = Missing Value Source: NWS Daily Summary

Daily Weather History Graph

Daily Weather History Graph

Search for Another Location

Airport or City:

Trip Planner

Search our weather history database for the weather conditions in past years. The results will help you decide how hot, cold, wet, or windy it might be!

Date:

Astronomy

Jan. 15, 2013 Rise Set
Actual Time 7:38 AM PST 4:38 PM PST
Civil Twilight 7:04 AM PST 5:12 PM PST
Nautical Twilight 6:26 AM PST 5:49 PM PST
Astronomical Twilight 5:50 AM PST 6:25 PM PST
Moon 9:27 AM PST (1/15) 9:54 PM PST (1/15)
Length of Visible Light 10h 08m
Length of Day
9h 00m
Waxing Crescent, 20% of the Moon is Illuminated
Jan 15
Waxing Crescent
Jan 18
First Quarter
Jan 26
Full
Feb 3
Last Quarter
Feb 9
New

Hourly Weather History & Observations

Time (PST) Temp. Windchill Dew Point Humidity Pressure Visibility Wind Dir Wind Speed Gust Speed Precip Events Conditions
12:50 AM 22.8 °F 16.7 °F 21.4 °F 94% 30.52 in 10.0 mi North 4.6 mph - N/A   Overcast
1:50 AM 20.7 °F - 19.0 °F 93% 30.53 in 10.0 mi NNE 2.3 mph - N/A   Overcast
2:50 AM 19.2 °F 14.1 °F 18.1 °F 96% 30.55 in 10.0 mi West 3.5 mph - N/A   Overcast
3:50 AM 18.7 °F 10.6 °F 17.4 °F 95% 30.56 in 6.0 mi WSW 5.8 mph - N/A   Overcast
4:50 AM 19.0 °F 12.3 °F 17.8 °F 95% 30.57 in 5.0 mi West 4.6 mph - N/A   Overcast
5:50 AM 18.1 °F - 16.9 °F 95% 30.58 in 5.0 mi SSW 2.3 mph - N/A   Overcast
6:50 AM 19.9 °F 14.9 °F 18.7 °F 95% 30.59 in 5.0 mi SE 3.5 mph - N/A   Overcast
7:50 AM 18.0 °F 11.1 °F 16.9 °F 96% 30.61 in 5.0 mi SSW 4.6 mph - N/A   Overcast
8:50 AM 20.7 °F - 19.2 °F 94% 30.63 in 6.0 mi South 2.3 mph - N/A   Overcast
9:50 AM 25.9 °F 21.7 °F 24.1 °F 93% 30.64 in 6.0 mi East 3.5 mph - N/A   Overcast
10:50 AM 27.9 °F 24.0 °F 24.3 °F 86% 30.66 in 8.0 mi SE 3.5 mph - N/A   Overcast
11:50 AM 30.9 °F 26.2 °F 24.1 °F 76% 30.66 in 8.0 mi ESE 4.6 mph - N/A   Overcast
12:50 PM 31.6 °F 28.3 °F 23.0 °F 70% 30.65 in 8.0 mi ESE 3.5 mph - N/A   Mostly Cloudy
1:50 PM 32.7 °F 29.6 °F 23.7 °F 69% 30.65 in 10.0 mi NNW 3.5 mph - N/A   Mostly Cloudy
2:50 PM 33.3 °F 30.2 °F 24.1 °F 69% 30.65 in 10.0 mi South 3.5 mph - N/A   Scattered Clouds
3:50 PM 32.9 °F 28.5 °F 24.1 °F 70% 30.63 in 12.0 mi NW 4.6 mph - N/A   Partly Cloudy
4:50 PM 27.1 °F 23.2 °F 22.3 °F 82% 30.63 in 12.0 mi NNW 3.5 mph - N/A   Clear
5:50 PM 25.5 °F 17.8 °F 21.2 °F 84% 30.63 in 12.0 mi WNW 6.9 mph - N/A   Clear
6:50 PM 23.7 °F 15.6 °F 20.3 °F 87% 30.63 in 12.0 mi West 6.9 mph - N/A   Clear
10:50 PM 19.4 °F 11.5 °F 18.0 °F 94% 30.61 in 15.0 mi WNW 5.8 mph - N/A   Clear
11:50 PM 15.8 °F 10.2 °F 14.0 °F 93% 30.61 in 15.0 mi NNW 3.5 mph - N/A   Clear